Location: Schommer Observatory
(40.5200°N, 74.4500°W)
Time: 15:34:08
(UTC-04:00)

Envisat - Pass Details

Date: 17 May 2018
Orbit: 764 x 766 km, 98.2° (Epoch: 16 October)

Event Time Altitude Azimuth Distance (km) Brightness Sun altitude
Rises 20:39:05 0° 178° (S) 3,218 5.9 -5.7°
Reaches altitude 10° 20:41:26 10° 184° (S) 2,296 5.2 -6.1°
Maximum altitude 20:46:22 52° 260° (W) 945 3.9 -6.9°
Drops below altitude 10° 20:51:21 10° 337° (NNW) 2,312 6.5 -7.7°
Sets 20:53:43 0° 342° (NNW) 3,242 7.2 -8.0°
